Wind_Speed
6 5 3 5 4 5 2 6 0 3 2 1 1 1 3 2 2 3 3 1 8 13 12 12 13 15 16 13 14 14 13 12 12 12 12 10 10 9 9 8 8 8 6 6 5 8 8 8 8
7 3 4 3 5 3 5 3 4 3 1 6 1 2 4 3 1 3 1 2 5 10 11 11 11 13 14 15 14 14 13 12 12 13 12 11 10 10 12 10 9 8 8 8 7 13 9 7 8
4 5 4 4 3 5 4 4 4 3 5 6 4 2 1 4 2 2 2 7 7 8 9 11 11 12 13 15 16 15 14 13 12 11 12 12 10 9 13 13 10 8 9 9 7 11 9 7 7
3 6 4 4 5 3 1 2 3 4 5 7 5 3 3 4 6 5 3 7 8 7 8 10 11 13 14 15 17 17 16 16 14 15 13 11 12 11 12 12 12 11 11 12 10 10 13 9 7
5 3 4 3 4 3 2 2 3 4 3 5 6 4 6 5 8 3 3 5 6 7 7 8 10 12 15 16 17 19 19 18 18 15 14 14 13 10 11 11 11 11 11 12 12 9 16 12 9
4 3 4 1 3 3 3 5 3 3 2 6 5 5 4 7 7 3 2 5 8 9 9 9 10 11 14 17 20 19 20 20 20 17 16 16 15 15 12 11 11 11 11 11 13 11 13 12 10
5 4 2 2 3 1 4 9 3 2 5 2 3 4 3 6 15 11 6 6 7 9 10 10 11 12 14 16 19 22 21 19 18 18 18 18 16 16 13 12 11 10 11 11 12 14 14 14 12
4 4 2 2 1 2 4 6 1 3 5 7 1 3 5 4 15 14 10 7 9 11 11 11 11 11 12 13 13 17 18 12 12 18 19 18 17 16 15 13 12 11 11 11 11 13 15 15 14
3 4 0 2 2 2 2 5 3 2 3 4 4 2 6 16 19 15 14 16 14 13 13 15 15 13 11 11 10 9 9 9 9 8 8 9 14 17 17 15 14 13 12 12 12 11 14 16 17
5 3 5 3 2 3 3 1 3 4 5 4 4 7 13 19 18 10 12 18 21 23 23 20 16 16 14 12 9 7 5 4 6 7 9 8 7 6 10 13 13 12 13 14 14 13 12 13 17
2 4 2 3 2 1 3 3 3 2 5 7 6 9 10 15 19 17 20 21 25 26 24 24 20 18 18 16 12 7 4 3 2 2 3 7 5 4 5 5 8 10 13 16 16 15 15 16 17
0 3 2 3 1 1 3 4 4 5 7 3 6 8 6 9 10 15 19 21 23 24 26 26 24 20 18 16 14 9 2 3 2 3 4 5 5 6 6 6 4 6 10 13 14 19 19 18 19
1 2 2 5 8 6 2 6 5 8 11 7 7 8 9 8 13 16 19 22 23 23 24 24 24 19 16 15 12 9 9 6 4 4 4 4 6 7 9 9 8 8 7 8 12 13 15 18 22
1 3 6 5 5 4 3 3 2 4 2 5 8 9 7 7 9 14 19 21 20 20 18 17 14 9 10 14 9 9 6 7 9 7 7 9 9 10 9 9 10 10 10 10 10 10 13 16 17
2 6 6 0 4 3 3 0 6 3 5 7 9 8 7 8 11 10 14 14 14 16 16 13 8 12 10 8 10 13 11 8 8 11 10 11 10 10 11 11 11 11 11 12 12 13 14 14 15
4 4 5 2 6 2 2 7 4 3 5 12 10 7 7 7 9 9 9 11 13 13 13 12 5 9 15 20 15 18 14 11 9 8 16 10 11 11 12 13 13 12 12 13 14 14 16 16 16
6 2 2 8 3 4 5 8 7 4 8 10 8 7 7 8 9 12 11 8 11 12 13 14 9 11 14 13 12 12 9 7 6 6 9 14 11 8 9 10 11 12 13 14 14 14 14 17 18
3 4 3 5 4 4 5 12 9 5 7 9 7 6 7 8 6 12 11 8 9 10 12 13 12 8 12 7 9 9 8 9 10 11 9 8 7 6 8 10 12 12 15 16 16 16 15 15 16
1 3 4 4 5 7 5 13 17 10 4 5 2 5 7 8 9 9 10 8 10 10 11 10 9 4 3 2 6 8 10 11 11 9 8 9 11 12 12 12 12 12 13 13 13 14 14 17 15
4 3 4 5 2 4 6 16 8 3 1 3 4 6 7 7 8 9 10 8 10 10 8 7 5 5 6 7 8 7 7 7 9 10 11 12 10 10 11 12 12 13 14 14 15 15 16 15 15
3 3 2 3 7 1 7 5 5 3 3 3 4 3 4 6 7 7 10 9 10 11 6 7 7 6 8 9 9 10 11 11 12 12 11 8 10 11 13 14 13 14 13 14 14 15 15 14 15
3 2 3 5 5 3 5 4 4 3 2 3 6 6 7 7 6 5 9 10 10 9 6 6 7 7 7 9 10 11 13 15 16 15 15 13 12 13 14 17 11 12 12 13 13 13 14 15 13
3 2 3 1 2 3 1 2 6 3 2 2 5 7 8 8 7 8 10 11 11 10 9 8 8 7 8 9 11 12 15 17 18 18 18 17 15 14 15 17 13 13 12 12 13 14 16 17 17
5 3 4 3 2 2 1 3 5 3 2 0 2 6 7 8 8 9 13 11 13 13 12 11 11 12 11 10 11 13 15 17 19 20 19 19 18 17 18 18 15 13 13 14 14 15 16 16 18
7 5 4 5 4 4 3 1 8 3 2 2 3 5 6 6 7 7 8 15 17 17 17 14 13 15 15 15 15 15 16 18 19 21 21 22 22 21 19 18 17 16 15 14 15 16 16 16 19
3 2 4 4 2 5 4 6 4 3 2 3 4 2 4 7 6 6 8 12 16 20 21 21 18 18 19 18 18 19 19 20 21 23 22 22 23 23 21 19 19 19 18 15 16 16 16 16 18
1 1 3 2 1 2 4 6 6 2 3 4 5 5 6 6 6 6 10 14 17 20 21 22 21 21 22 23 21 19 18 20 23 23 23 24 24 25 24 22 22 22 21 19 16 18 21 20 19
1 4 2 3 1 4 5 5 5 6 6 5 5 5 7 4 4 6 11 16 18 19 20 21 21 21 23 23 21 22 22 21 20 20 23 25 26 25 25 25 24 24 23 21 19 20 19 17 19
1 0 3 2 3 4 3 6 6 8 8 8 4 4 7 8 3 1 9 14 16 17 19 23 23 23 25 25 26 27 26 22 20 20 21 22 24 25 27 26 26 26 27 25 23 21 18 18 19
1 4 5 3 4 3 3 6 1 6 6 7 4 6 7 7 4 2 8 13 18 19 20 24 26 26 25 25 26 26 27 28 28 26 24 22 23 23 23 24 26 28 27 28 26 23 18 19 20
Wind_Direction
342 348 359 32 55 63 277 255 321 277 296 242 26 336 274 66 129 231 342 302 227 191 180 188 193 193 187 192 190 188 184 188 185 183 184 191 184 186 178 172 170 166 164 184 177 160 156 156 153
345 13 43 71 89 83 258 252 226 247 331 337 336 344 14 352 24 312 354 104 150 177 185 191 205 208 202 195 199 193 187 189 189 189 186 191 196 196 195 187 181 183 179 183 195 177 173 165 167
26 31 80 94 118 185 211 230 230 321 3 4 8 68 15 327 334 243 257 182 189 197 208 209 211 216 219 217 212 208 205 203 201 194 191 189 188 188 200 197 192 196 200 197 200 196 193 183 178
26 23 35 93 224 265 217 302 273 3 11 35 343 10 341 1 325 325 228 182 191 204 217 224 227 228 235 229 222 219 214 216 217 213 196 190 201 199 198 200 214 222 215 209 207 209 203 201 194
51 56 53 54 276 300 24 15 18 19 19 345 342 322 316 349 9 84 169 210 212 217 228 235 243 250 253 248 238 226 222 222 221 218 212 208 218 220 219 215 216 220 220 214 208 212 208 206 206
43 89 57 240 273 334 28 358 7 27 6 322 14 337 278 335 354 353 251 250 250 243 238 250 260 262 256 249 248 244 233 228 226 219 211 219 224 226 227 222 218 214 214 218 211 198 198 205 215
99 77 183 199 280 348 343 328 51 334 331 309 294 319 291 11 353 327 289 255 236 234 240 249 259 267 268 260 250 243 240 242 241 227 225 227 230 230 231 227 222 220 216 215 218 215 206 215 220
96 87 103 320 292 291 311 343 111 49 280 314 278 272 291 330 351 328 303 291 252 249 252 253 255 257 267 273 273 266 260 281 254 232 232 232 235 237 234 231 229 226 225 226 223 222 220 219 228
98 59 325 245 207 266 314 11 298 309 270 340 280 278 286 317 324 320 311 307 289 271 263 263 257 254 258 269 276 281 282 278 298 306 301 278 243 236 235 236 233 232 231 231 236 231 226 225 229
76 101 221 208 202 243 296 191 310 343 334 288 299 300 307 323 323 313 294 291 286 283 280 267 257 251 253 254 256 269 275 266 269 284 296 301 284 270 251 246 240 250 250 244 240 238 236 232 234
129 184 209 259 206 176 262 272 209 227 294 236 274 299 311 311 318 315 305 299 285 280 275 278 265 253 247 242 236 237 245 264 273 254 272 282 301 310 318 278 257 256 253 254 247 244 243 238 237
313 237 211 278 121 305 266 308 292 203 237 252 277 278 281 312 319 320 317 316 312 302 280 270 272 260 250 239 229 216 250 306 276 293 284 301 314 321 321 325 312 286 276 267 266 255 251 247 245
166 289 273 284 291 264 284 251 240 264 267 295 297 320 327 337 329 327 322 318 317 306 301 275 272 265 239 227 244 219 243 283 312 292 286 297 299 305 309 306 300 293 292 294 283 279 276 269 255
329 289 285 310 295 285 283 279 115 283 312 322 340 331 337 335 323 326 339 337 343 333 312 300 275 218 209 198 192 231 232 256 266 262 282 293 298 300 298 301 301 302 299 288 286 290 286 282 281
347 346 334 190 320 303 302 139 218 261 333 337 330 335 337 332 336 341 351 349 353 358 353 343 297 235 199 211 227 229 273 238 221 276 283 287 294 300 302 298 295 301 301 299 292 282 280 284 287
36 48 18 298 342 286 32 278 262 2 1 328 327 331 335 323 321 348 341 358 1 5 358 348 359 225 219 237 252 258 236 232 234 232 274 288 288 290 295 298 297 297 295 295 294 293 289 281 282
11 331 345 316 39 347 60 276 275 312 337 302 315 319 327 324 335 349 345 346 350 355 350 334 311 270 245 228 238 250 254 246 251 258 271 284 280 291 295 297 299 299 298 299 300 296 294 292 288
316 334 292 255 306 5 296 270 284 282 245 278 303 315 334 336 309 340 2 348 347 349 348 347 338 274 260 251 242 241 244 269 284 293 289 284 305 300 298 297 296 299 299 298 296 296 296 295 297
178 239 261 265 314 345 290 291 294 297 272 283 231 352 346 328 312 338 348 343 344 340 346 356 0 17 242 250 232 273 288 297 301 304 302 304 304 300 296 294 297 298 301 305 304 301 302 301 302
230 271 298 275 269 336 329 301 298 327 61 116 47 354 330 328 329 335 348 7 1 324 327 342 345 335 319 309 305 308 312 310 314 312 306 303 302 303 304 306 306 307 308 296 293 296 295 291 297
241 218 222 249 326 265 300 304 352 12 69 54 21 316 310 304 325 325 337 340 337 343 308 323 318 308 307 308 307 304 301 301 304 307 307 306 298 295 298 301 301 305 303 302 300 295 287 282 287
341 193 29 329 15 288 20 277 312 342 37 17 343 336 323 328 330 324 335 343 342 336 326 312 317 310 305 304 299 300 299 299 301 303 298 296 294 293 295 305 296 305 307 308 305 302 291 286 275
247 19 280 221 185 15 351 71 271 341 286 330 330 334 337 327 325 327 331 335 338 340 342 323 309 303 301 295 291 290 290 292 298 298 296 296 294 289 282 295 295 291 291 297 299 297 292 288 273
315 20 60 58 96 14 262 141 278 206 203 128 351 352 338 341 346 348 355 346 342 342 336 326 317 310 309 303 293 285 283 289 293 296 297 299 299 293 282 287 294 290 288 290 294 292 294 290 281
27 34 338 350 5 226 341 355 247 269 184 117 16 353 340 354 3 357 357 6 9 8 360 344 334 322 323 316 308 301 293 290 286 291 294 296 297 293 287 286 282 291 289 285 289 289 291 289 283
41 116 147 250 267 281 311 239 252 224 141 83 79 10 359 3 3 10 9 28 33 32 28 24 12 354 349 338 325 316 307 299 294 291 290 289 289 290 291 286 274 280 285 287 287 281 285 288 284
134 81 160 115 264 17 254 287 304 167 139 93 69 38 344 335 0 15 20 31 33 36 37 33 28 24 18 11 2 351 334 316 305 300 295 291 289 287 286 281 273 271 275 280 282 274 280 287 283
111 153 62 5 298 262 282 278 236 218 190 160 88 34 345 325 29 14 22 31 31 30 29 29 24 17 10 5 3 358 350 342 335 317 302 297 293 290 285 281 274 271 267 271 271 274 283 278 281
103 167 70 135 176 209 275 260 212 205 195 167 137 325 298 309 175 34 9 24 25 27 24 18 15 10 3 359 354 351 350 346 341 333 322 315 305 295 286 280 273 270 264 262 263 276 273 273 278
196 204 162 139 255 245 206 265 302 245 186 148 348 324 329 300 147 32 359 9 11 10 10 8 4 0 359 357 354 349 346 343 339 336 335 323 317 307 296 282 273 267 265 261 259 268 265 271 274
Height
792 791 790 790 819 832 833 822 807 804 801 793 793 795 796 794 800 814 789 787 786 788 789 790 791 792 793 795 795 796 796 798 798 800 801 803 804 805 806 807 808 810 811 812 812 813 813 814 814
792 791 791 806 834 841 834 812 811 803 795 794 792 792 795 799 793 791 791 790 790 791 791 792 794 795 795 796 797 797 798 798 798 799 800 802 804 804 805 806 807 808 810 811 812 813 813 814 815
792 792 802 822 842 836 831 811 806 798 796 797 796 792 795 799 793 791 790 791 791 792 793 793 794 795 796 798 798 798 798 799 799 800 800 800 801 803 804 805 805 807 808 810 811 812 813 814 814
793 796 810 824 826 815 810 805 806 803 798 800 801 801 798 797 795 794 792 792 793 793 793 794 795 795 796 795 797 798 798 799 800 800 801 801 801 801 802 803 804 805 806 808 809 811 813 814 814
795 807 827 829 822 813 809 806 805 806 808 806 806 806 806 796 795 794 794 794 794 794 793 794 794 795 795 796 796 796 797 798 797 798 799 800 801 801 801 801 802 804 805 806 807 809 811 813 814
808 815 834 835 826 814 812 814 808 812 812 809 808 808 805 797 796 797 796 795 794 794 794 794 794 794 794 793 795 796 796 795 796 796 797 798 799 800 800 800 801 802 803 806 806 807 809 811 813
814 827 832 830 826 817 817 817 814 813 813 810 807 811 802 798 798 797 797 796 794 794 793 793 793 793 792 792 792 792 794 795 795 795 795 796 797 798 799 799 800 801 802 803 805 807 808 810 811
817 825 827 828 832 821 820 817 812 814 814 807 805 812 808 800 799 798 797 797 796 795 794 793 792 792 791 791 790 789 789 790 791 791 794 794 795 796 797 798 799 800 801 803 803 805 807 809 810
814 835 839 826 826 822 820 820 812 812 814 812 807 805 803 800 799 798 796 795 795 795 793 792 792 791 790 790 790 789 788 788 789 790 792 792 792 793 795 795 796 797 799 801 803 803 805 807 808
824 840 830 822 821 822 820 820 817 816 817 813 809 804 802 799 797 797 796 794 792 791 790 790 789 789 789 789 789 789 789 788 790 790 793 792 792 791 792 793 794 796 798 799 801 802 803 804 806
825 831 823 819 818 819 820 820 816 817 818 813 810 806 801 799 797 796 794 792 791 789 787 787 787 786 786 787 787 788 789 789 789 789 791 794 793 792 792 792 793 794 796 797 798 799 800 801 802
825 821 821 818 818 820 819 816 818 817 811 806 807 806 802 799 797 795 792 789 787 784 783 783 783 784 784 786 787 787 789 789 789 790 791 792 791 793 793 794 794 794 795 795 795 796 797 798 799
824 822 820 819 821 820 819 819 819 814 807 806 805 802 800 798 797 794 791 787 784 781 779 779 781 780 782 784 789 789 788 790 790 790 792 791 792 792 793 793 793 794 794 794 794 794 795 796 796
823 824 824 821 818 818 818 817 817 807 806 805 805 803 800 800 798 794 789 785 782 780 778 777 780 782 781 783 786 790 788 788 789 790 791 791 792 792 791 791 792 792 793 793 793 793 793 793 793
823 826 823 820 817 816 816 818 820 809 808 806 805 802 801 799 796 794 790 787 786 782 779 778 779 783 784 788 789 786 788 788 788 789 790 791 791 791 790 789 790 790 790 790 790 790 790 790 790
829 832 840 819 821 815 816 819 806 805 810 806 804 803 802 799 796 792 790 789 788 784 783 783 781 781 782 784 785 788 784 785 788 789 790 790 790 788 788 788 788 788 788 788 788 787 787 786 787
844 839 838 833 822 821 818 821 807 805 807 807 806 805 802 800 794 791 789 789 788 786 785 784 783 782 782 780 784 785 785 787 788 788 790 789 790 786 786 786 786 786 786 786 785 785 785 784 783
842 844 842 840 824 825 824 818 810 807 808 807 808 806 803 799 795 792 790 789 787 786 786 784 782 781 781 781 782 785 786 786 786 786 787 789 784 784 784 785 785 785 784 784 783 782 782 781 780
841 845 843 837 829 826 822 818 806 802 804 805 801 804 803 800 795 792 790 789 787 786 786 784 783 783 783 783 785 785 785 784 783 783 783 782 783 783 783 782 782 782 781 781 781 780 779 778 778
842 841 839 833 828 832 826 816 808 800 797 798 800 803 804 802 797 792 790 788 786 786 786 786 785 786 786 786 785 784 784 784 783 783 783 783 782 782 782 781 780 780 779 778 778 778 777 776 776
838 837 837 838 837 832 835 815 808 800 800 800 802 804 802 801 797 793 790 788 787 786 785 785 785 785 786 785 785 784 783 782 782 782 782 782 781 781 780 779 778 778 777 776 775 775 774 773 772
834 834 835 842 846 843 835 835 815 806 802 802 804 805 803 800 797 795 791 788 787 786 784 784 784 784 784 784 784 784 783 782 781 781 780 780 779 779 778 777 775 775 774 773 773 772 772 771 769
835 835 840 841 847 849 840 857 820 811 804 803 803 804 804 802 799 796 793 790 788 786 784 784 783 783 783 782 782 781 781 781 779 778 778 777 777 776 776 774 773 772 772 771 770 769 769 768 767
837 837 844 855 856 857 833 844 823 816 804 803 802 806 805 802 799 795 793 791 789 787 785 784 783 782 782 780 780 779 777 777 776 775 774 773 773 773 772 771 770 769 769 769 768 766 765 765 763
842 847 861 853 867 847 840 839 822 806 803 802 804 807 805 802 799 797 794 792 790 788 785 784 783 781 781 780 778 777 775 774 772 771 770 769 768 768 768 767 766 766 765 765 764 763 762 761 760
846 848 873 866 875 866 847 834 814 807 805 807 807 806 804 802 801 798 795 792 790 788 786 784 783 782 781 779 777 775 774 772 770 769 767 765 764 763 763 762 762 762 761 760 760 759 758 757 755
847 859 853 861 874 885 844 827 811 806 806 807 807 806 806 805 803 799 797 794 791 789 788 787 785 783 781 779 776 773 771 770 768 765 764 762 760 759 758 757 757 756 756 755 755 754 753 752 751
843 852 863 880 871 852 838 835 818 810 808 808 808 808 805 803 804 803 799 796 794 792 789 786 785 784 782 779 776 773 770 768 764 762 759 758 756 754 753 752 751 750 750 750 750 749 749 747 746
855 856 860 870 868 866 878 833 811 806 806 809 807 805 804 802 803 803 800 797 795 792 790 788 784 782 780 778 775 772 768 765 763 760 757 754 751 749 747 746 745 744 744 744 744 743 743 742 741
842 844 854 872 866 873 880 841 800 804 804 808 808 809 806 803 802 802 800 797 794 792 789 786 783 781 778 776 773 770 767 763 759 756 753 750 747 744 741 740 739 738 738 738 738 737 737 736 735